Tracking 18942 objects as of 18-Jan-2018
HD Live streaming from Space Station
objects crossing your sky now

SCOUT X-1 R/B

Track SCOUT X-1 R/B now!
10-day predictions


NORAD ID: 82
Int'l Code: 1961-004B
Perigee: 641.8 km
Apogee: 2,506.2 km
Inclination: 38.9 °
Period: 117.5 minutes
Semi major axis: 7945 km
RCS: 0.5515 m2 (medium)
Launch date: February 16, 1961
Source: United States (US)
Launch site: WALLOPS ISLAND (WLPIS)

Note: This is a ROCKET BODY
aabbcc
Your satellite tracking list
Your tracking list is empty




NASA's NSSDC Master Catalog

Two Line Element Set (TLE):
1    82U 61004B   18017.34402353 +.00000026 +00000-0 +61277-4 0  9997
2    82 038.8523 224.4580 1173323 146.6946 221.3446 12.25913430699547
Source of the keplerian elements: AFSPC